EHI
9 9 10 9 9 9 7 5 5 6 8 8 8 8 6 5 5 6 4 3 3 3 2 1 3 4 4 4 6 9 12 12 8 5 6 7 6 4 3 5 5 4 4
9 8 8 9 10 10 8 7 8 9 9 9 9 9 8 6 6 5 4 3 2 2 2 1 2 3 5 6 7 9 12 12 9 7 6 7 7 6 5 5 4 3 4
9 8 8 10 11 11 10 10 12 12 12 11 10 10 9 9 7 5 3 3 3 3 2 2 3 5 6 8 8 8 9 10 10 9 7 8 8 8 7 5 4 4 4
11 11 11 11 11 12 12 13 14 14 13 13 12 12 11 10 8 5 2 3 3 3 3 3 4 6 6 6 6 7 7 7 8 8 7 6 8 9 7 5 5 5 5
13 13 13 13 12 12 13 15 15 15 14 13 12 11 9 7 5 3 1 2 3 4 3 4 5 5 4 3 3 4 6 6 6 6 5 5 6 7 7 6 6 5 5
12 12 13 13 11 10 12 15 18 17 14 13 10 8 6 4 2 1 0 1 2 4 5 5 5 4 3 2 1 1 2 3 4 5 5 5 5 5 5 5 5 4 3
12 12 12 12 10 9 12 17 20 19 17 15 12 9 7 3 1 0 0 0 2 5 6 6 5 4 4 3 2 1 1 1 1 3 4 3 3 4 4 4 2 2 3
11 11 11 11 10 11 14 18 21 22 21 19 17 14 10 5 1 0 0 1 3 5 6 6 6 5 4 4 3 2 2 1 0 1 2 1 1 2 3 3 2 2 3
8 8 9 10 12 14 16 17 19 20 21 20 18 14 9 4 1 0 1 3 4 5 6 5 5 4 3 2 3 3 3 2 1 0 0 0 0 1 2 3 3 3 3
5 5 6 10 13 14 16 16 15 16 17 16 14 10 6 3 2 0 1 3 4 5 5 3 2 1 1 1 2 2 2 2 1 0 0 0 1 1 2 3 3 3 2
7 6 8 11 13 14 15 14 12 11 12 12 11 7 4 2 1 0 1 2 3 3 2 1 0 0 0 0 1 1 1 1 0 0 0 1 1 2 2 3 3 3 2
11 11 11 11 12 14 14 11 9 8 9 9 8 6 3 1 0 0 0 1 1 1 1 1 0 0 0 0 0 0 0 0 0 0 0 1 1 1 3 3 3 3 3
12 12 11 10 11 12 11 8 7 7 7 7 6 5 3 1 1 0 0 0 0 0 0 0 0 0 0 0 0 0 0 0 0 0 0 0 0 1 2 2 2 2 2
9 8 7 6 7 7 6 5 5 6 5 4 5 4 3 2 1 0 0 0 0 0 0 0 0 0 0 0 0 0 0 0 0 0 0 0 1 1 1 1 1 1 1
6 5 4 3 3 3 2 2 3 3 3 2 2 3 2 2 1 0 0 0 0 0 0 0 0 0 0 0 0 0 0 0 0 0 0 0 1 1 0 0 0 0 0
6 5 3 1 0 0 0 0 1 1 1 0 1 1 1 1 0 0 0 0 0 0 0 0 0 0 0 0 0 0 0 0 0 0 0 0 0 0 0 0 0 0 0
6 5 3 1 0 0 0 1 1 0 0 0 0 0 0 0 0 0 0 0 0 0 0 0 0 0 0 0 0 0 0 0 0 0 0 0 0 0 0 0 0 0 0
6 5 3 2 1 1 1 1 1 0 0 0 0 0 0 0 0 0 0 0 0 0 0 0 0 0 0 0 0 0 0 0 0 0 0 0 0 0 0 0 0 0 0
6 4 3 3 3 2 1 1 1 1 0 0 0 0 0 0 0 0 0 0 0 0 0 0 0 0 0 0 0 0 0 0 0 0 0 0 0 0 0 0 0 0 0
5 4 3 3 3 3 3 2 2 2 1 0 0 0 0 0 0 0 0 0 0 0 0 0 0 0 0 0 0 0 0 0 0 0 0 0 0 0 0 0 0 0 0
5 4 3 3 3 3 3 3 3 2 1 0 0 0 0 0 0 0 0 0 0 0 0 0 0 0 0 0 0 0 0 0 0 0 0 0 0 0 0 0 0 0 0
5 5 4 3 3 3 3 3 2 1 0 0 0 0 0 0 0 0 0 0 0 0 0 0 0 0 0 0 0 0 0 0 0 0 0 0 0 0 0 0 0 0 0
5 4 3 3 3 2 2 1 1 0 0 0 0 0 0 0 0 0 0 0 0 0 0 0 0 0 0 0 0 0 0 0 0 0 0 0 0 0 0 0 0 0 0
4 3 3 2 1 1 1 0 0 0 0 0 0 0 0 0 0 0 0 0 0 0 0 0 0 0 0 0 0 0 0 0 0 0 0 1 1 1 1 0 0 0 0
2 2 2 1 0 0 0 0 0 0 0 0 0 0 0 0 0 0 0 0 0 0 0 0 0 0 0 0 0 0 0 0 0 0 0 0 1 1 1 1 0 0 0
1 1 1 0 0 0 0 0 0 0 0 0 0 0 0 0 0 0 0 0 0 0 0 0 0 0 0 0 0 0 0 0 0 0 0 0 0 1 1 1 1 0 0
Wind_Speed
1 1 1 1 0 0 1 1 1 0 0 0 1 1 2 2 1 2 3 2 3 3 3 2 3 4 3 3 2 3 3 3 4 3 1 0 1 2 1 3 3 4 4
2 1 1 1 1 0 1 1 1 0 0 0 1 1 2 2 2 2 3 3 3 3 3 3 3 3 3 3 3 3 3 3 4 4 2 1 2 2 2 3 3 2 2
2 2 1 1 1 0 1 1 1 1 1 1 1 2 2 2 3 3 3 4 3 3 3 3 3 3 3 3 3 3 2 2 3 3 2 2 2 1 2 2 2 2 3
2 2 2 1 1 0 0 1 1 1 1 1 2 2 3 3 3 4 4 4 4 4 3 3 3 3 3 3 3 3 3 3 3 3 2 2 2 1 2 2 2 2 2
2 1 1 1 1 0 0 1 1 1 1 1 2 2 3 2 3 4 5 4 4 4 3 3 3 2 4 4 4 3 3 3 3 2 2 2 1 2 2 2 2 2 2
2 1 1 0 1 0 0 0 0 1 1 2 2 2 3 3 5 6 6 5 4 4 3 3 3 1 1 1 3 4 5 4 4 3 2 2 3 3 2 3 2 3 2
2 1 1 0 0 0 1 0 1 1 1 2 2 2 3 3 5 5 6 5 4 3 3 4 3 2 2 2 2 2 3 4 5 5 4 4 4 3 3 4 3 3 3
1 1 0 1 1 1 1 1 1 1 1 2 2 2 3 3 5 5 6 5 4 3 3 3 3 3 3 4 4 4 3 3 3 4 4 5 4 3 4 4 4 4 4
1 1 0 0 1 1 1 1 1 1 2 2 2 2 3 3 4 5 6 4 3 3 3 3 3 3 3 4 4 4 4 4 2 2 3 3 3 3 4 4 4 4 4
2 1 1 1 1 1 1 2 2 2 3 3 2 2 3 3 3 3 5 3 3 3 3 2 1 3 3 3 5 5 5 5 5 3 3 4 4 4 4 5 4 4 4
1 1 1 1 1 1 1 2 2 2 3 3 3 2 2 2 1 1 3 3 4 4 3 3 2 3 3 4 6 5 6 7 6 5 4 3 3 3 3 4 4 4 5
1 1 1 1 2 1 1 2 2 3 3 2 3 3 1 1 1 1 1 3 5 4 4 4 3 3 4 5 5 4 6 7 5 4 3 3 2 2 2 2 2 3 4
0 0 0 1 1 2 2 2 2 2 3 2 2 2 2 1 0 2 2 3 3 4 3 4 4 4 5 5 3 4 5 5 4 3 3 3 2 2 2 2 2 2 3
1 1 2 2 2 1 2 2 2 2 2 2 3 3 2 2 2 2 1 1 2 3 3 3 4 5 5 4 3 3 3 3 4 4 3 3 2 2 2 2 3 2 2
2 2 3 2 1 1 1 2 3 2 3 4 4 3 3 3 4 5 5 3 4 3 4 4 3 2 3 3 3 2 3 3 3 3 3 3 2 2 2 2 2 3 3
3 3 2 2 1 2 2 1 1 1 1 2 3 4 3 2 3 5 5 5 5 5 5 4 3 3 4 4 4 3 3 3 3 3 3 3 3 2 2 2 2 2 3
3 2 2 2 2 2 2 3 2 2 4 5 5 4 5 4 4 5 5 6 6 5 4 3 3 4 4 4 4 4 4 4 3 4 4 3 3 3 3 2 2 2 3
3 2 3 3 2 2 2 3 3 3 2 2 3 5 5 5 5 5 5 4 4 4 3 3 4 4 4 4 4 4 4 4 4 4 4 4 3 3 3 3 2 3 2
3 2 2 2 2 2 2 3 3 3 3 3 3 1 3 4 5 5 5 4 4 4 3 3 3 4 4 4 4 4 4 4 4 4 4 4 4 4 3 3 3 3 3
3 2 3 3 2 2 2 3 3 3 3 3 4 3 2 3 3 2 3 3 4 4 4 4 4 4 4 4 4 4 4 4 4 4 4 4 4 4 4 4 3 3 3
3 2 3 3 2 2 3 3 3 3 3 3 3 2 4 5 4 4 3 3 4 4 4 4 4 4 4 4 4 5 5 4 4 4 4 4 4 4 4 4 4 4 3
2 2 2 2 2 2 3 3 3 3 3 3 3 1 2 4 4 4 4 4 3 4 4 4 4 4 4 4 5 5 5 5 4 4 4 4 4 4 4 4 4 4 3
2 2 2 2 2 2 3 3 3 3 3 3 3 3 3 3 4 4 4 4 4 4 4 4 5 5 4 4 5 5 5 5 5 5 5 5 5 5 4 5 5 5 4
2 2 2 2 2 2 2 3 3 3 3 3 3 3 3 3 4 4 4 4 4 4 4 4 4 6 7 6 5 4 4 5 5 4 6 6 6 5 5 5 5 5 5
2 2 1 1 2 2 3 3 3 3 3 3 3 3 4 3 3 4 4 4 5 5 5 5 4 5 7 7 6 5 5 5 5 6 6 6 7 6 6 7 6 6 6
1 1 1 1 1 2 2 3 3 3 3 3 3 3 3 3 4 4 4 4 5 5 5 4 5 6 7 6 5 5 3 3 4 7 7 6 6 6 6 6 7 7 7
Wind_Direction
135 124 77 82 79 46 43 52 78 21 326 322 322 308 303 303 293 286 302 308 302 309 308 296 294 305 300 289 281 283 278 271 267 274 276 241 236 259 260 261 247 235 206
136 140 128 109 91 63 59 22 20 42 331 11 294 295 297 304 303 294 294 305 301 302 307 309 300 296 297 296 297 288 285 279 265 268 274 263 248 246 244 253 257 260 260
136 138 116 98 94 75 44 10 346 319 330 328 305 315 317 316 306 296 293 295 295 294 298 302 305 302 295 304 296 297 288 276 267 261 266 280 261 260 259 251 255 272 272
137 128 109 83 57 22 31 347 334 330 341 334 333 325 319 315 308 298 291 288 288 291 295 297 298 303 302 300 289 290 289 283 266 254 256 261 257 259 262 257 262 262 280
143 132 106 86 69 39 42 22 14 351 350 356 337 330 317 303 320 316 297 286 289 292 299 301 308 337 347 325 317 320 300 280 273 265 262 271 281 274 269 270 279 281 274
152 141 108 99 121 122 246 282 5 350 344 347 343 325 317 346 11 348 317 297 296 297 302 303 297 268 346 346 339 331 317 291 288 281 267 271 277 276 273 266 264 268 273
141 140 137 174 170 222 259 245 285 297 319 331 328 325 331 11 11 348 326 298 294 304 307 305 305 347 331 318 325 275 279 292 288 282 282 277 273 265 263 261 257 272 284
123 127 134 233 242 243 244 271 293 309 317 316 318 327 332 4 13 345 327 293 300 308 308 301 305 322 341 335 312 308 298 281 262 259 276 279 280 283 262 258 260 253 260
87 56 22 291 296 293 284 289 293 300 301 296 311 326 327 343 12 346 325 306 317 311 310 315 311 313 14 344 305 305 306 296 253 237 263 278 303 286 270 262 252 249 252
54 35 24 3 326 311 309 301 298 287 288 294 311 314 312 324 10 348 329 308 320 308 304 299 37 348 359 328 297 295 295 301 305 286 256 243 246 242 232 246 252 252 260
50 37 29 3 312 303 318 311 302 300 306 303 303 299 305 327 18 29 336 314 317 307 307 308 7 45 348 315 297 296 302 300 290 281 276 270 253 244 234 235 248 260 266
52 34 5 309 302 22 338 306 298 292 277 284 291 298 306 310 17 45 290 288 311 308 308 319 356 15 317 295 289 306 299 287 277 283 282 283 276 272 264 261 256 269 281
312 319 314 309 306 309 290 278 270 271 286 301 299 300 312 328 83 141 223 256 274 292 316 341 321 295 286 274 251 272 277 276 286 290 291 294 297 303 304 287 255 239 253
227 242 242 240 247 265 290 296 301 305 307 305 308 310 318 319 336 350 311 271 247 261 294 284 251 250 261 287 288 267 274 293 300 297 294 297 306 295 274 275 273 264 260
234 236 247 248 257 271 282 323 315 338 339 312 315 312 315 322 358 343 319 315 316 322 307 286 290 302 303 309 310 311 303 299 291 297 298 294 291 291 284 287 289 279 266
239 241 248 255 261 263 260 234 169 270 212 241 267 291 313 329 311 303 298 290 286 287 284 289 303 310 313 316 317 316 310 310 309 302 300 297 293 278 268 267 271 276 280
249 257 263 263 259 266 279 288 283 219 214 226 229 237 260 282 279 278 281 281 266 260 262 288 304 312 313 313 313 314 315 314 306 295 292 289 284 280 275 269 264 264 269
246 234 250 256 262 269 277 284 291 299 293 274 219 213 231 242 247 250 256 269 264 244 270 292 301 305 306 309 311 312 311 311 307 297 289 286 280 279 277 271 266 269 265
246 249 252 268 266 269 278 282 288 296 298 302 302 205 206 226 221 226 233 270 290 296 298 298 298 300 303 306 305 299 298 301 304 300 296 296 293 287 281 280 280 272 266
226 231 259 262 266 271 276 281 288 291 291 294 302 319 314 274 273 252 249 279 290 296 296 296 301 305 303 303 299 295 291 293 296 294 300 300 296 294 287 279 274 266 256
238 200 214 254 271 287 291 291 293 291 291 297 311 353 322 298 304 312 308 307 307 312 312 310 308 299 295 298 299 300 300 302 306 306 306 302 297 295 292 286 280 273 271
250 238 229 251 269 280 287 285 284 287 294 298 308 316 237 287 313 318 319 320 316 313 313 311 307 307 308 304 299 299 300 301 302 303 306 303 296 291 289 285 280 272 265
238 240 242 255 267 260 263 279 290 295 298 301 309 318 315 318 319 322 323 322 320 315 315 311 308 311 317 318 313 304 299 302 307 307 298 291 290 289 284 281 277 274 267
230 240 250 259 268 272 279 287 288 298 309 315 316 315 313 316 317 325 322 319 318 316 317 315 313 315 316 314 310 313 324 321 308 297 290 285 283 281 279 275 271 267 261
229 236 244 261 279 287 292 294 297 302 307 309 307 303 307 314 315 316 316 318 316 313 314 311 309 309 308 310 317 330 354 338 313 305 286 280 281 278 273 269 268 267 261
239 249 261 270 278 283 287 288 294 300 298 300 302 306 309 310 314 313 311 312 309 305 302 302 309 310 308 303 321 340 332 310 302 297 288 281 279 278 278 271 267 263 260